Location: Unspecified
(0.0000°N, 0.0000°E)
Time: 18:27:55
(UTC+01:00)

ARIANE 5 R/B - Visible Passes

Search period start: 19 December 2014 00:00
Search period end: 29 December 2014 00:00
Orbit: 582 x 35546 km, 4.9° (Epoch: 18 December)

Date Brightness Start Highest point End Pass type
(mag) Time Alt. Az. Time Alt. Az. Time Alt. Az.
19 Dec 5.3 00:00:00 34° W 04:41:45 74° S 04:48:21 10° E visible
19 Dec 7.5 15:47:28 10° W 20:12:59 89° N 01:47:15 10° E visible
20 Dec 6.3 12:45:40 10° W 12:53:45 76° N 22:39:10 10° E visible
21 Dec 10.8 21:41:15 10° W 22:47:32 18° W 00:39:05 10° W visible
22 Dec 3.5 06:37:25 10° W 06:47:22 72° S 06:50:54 10° E visible
22 Dec 5.9 17:56:10 10° W 03:41:59 76° S 03:50:54 10° E visible
23 Dec 7.7 14:49:06 10° W 20:56:13 89° S 00:48:44 10° E visible
24 Dec 5.8 11:48:14 10° W 11:54:17 74° N 21:36:12 10° E visible
25 Dec 10.6 20:20:07 10° W 21:50:29 30° W 01:24:01 10° W visible
26 Dec 4.1 05:30:23 10° W 05:49:11 73° S 05:53:25 10° E visible
26 Dec 7.0 16:55:38 10° W 18:46:00 80° WNW 02:53:18 10° E visible
27 Dec 7.2 13:51:08 10° W 21:53:54 85° SE 23:49:36 10° E visible
28 Dec 8.9 14:38:39 10° E 18:53:48 35° E 20:29:42 10° E visible
